www.pogodaiklimat.ru

Погода и климат >> Архив погоды >> Таиланд >> Вичан Бури


ПОГОДА в Вичан Бури

  • Прогноз погоды в Вичан Бури
  • Монитор погоды в Вичан Бури

АРХИВ ПОГОДЫ в Вичан Бури

Время (UTC), дата Ветер
(напр.,м/с)
 
Видим.   Явления Облачность Т
(С)
Тd
(С)
f
(%)
Тe
(С)
Тes
(С)
Комфортность P
(гПа)
Po
(гПа)
Тmin
(С)
Tmax
(С)
R
(мм)
R24
(мм)
S
(см)
09 18.06 Ю 4 10 км 4/3 600 м
[Cu med, cong Cs]
+34.5 +23.0 51 +44 +48 опасность
перегрева
1003.5 995.8
12 18.06 штиль 0 9000 м мгла 4/3 600 м
[Cu med, cong Cs]
+31.7 +23.5 62 +43 +43 опасность
перегрева
1004.5 996.7 +34.5
15 18.06 штиль 0 8000 м дымка 5/3 600 м
[Cu med, cong Ac und Cs]
+30.0 +24.3 72 +42 +42 опасность
перегрева
1006.7 998.8
18 18.06 штиль 0 8000 м дымка 5/3 600 м
[Cu med, cong Ac und Cs]
+28.5 +24.9 81 +41 +41 опасность
перегрева
1006.6 998.7
21 18.06 штиль 0 8000 м дымка 6/3 600 м
[Cu med, cong Ac und Cs]
+27.3 +24.0 82 +38 +38 очень
душно
1005.9 998.0
00 19.06 штиль 0 10 км 10/3 600 м
[Cu Sc Ac und Cs]
+28.5 +24.9 81 +41 +42 опасность
перегрева
1007.0 999.1 +27.0
03 19.06 ЮЗ 3 10 км 10/3 600 м
[Cu Sc Ac und Cs]
+32.5 +23.9 61 +44 +49 опасность
перегрева
1007.7 999.9
06 19.06 Ю 5 10 км 9/5 600 м
[Cu Sc Cs]
+34.5 +23.0 51 +44 +49 опасность
перегрева
1006.3 998.5
09 19.06 ЮВ 3 10 км 3/3 600 м
[Cu med, cong Cs]
+36.0 +23.1 47 +46 +50 опасность
перегрева
1004.0 996.3
12 19.06 штиль 0 9000 м мгла 10/4 600 м
[Cu Sc Ac und Cs]
+33.0 +23.7 58 +44 +44 опасность
перегрева
1004.9 997.1 +36.5
15 19.06 штиль 0 8000 м дымка 9/4 600 м
[Cu Sc Ac und Cs]
+30.7 +24.7 70 +43 +43 опасность
перегрева
1006.7 998.8
18 19.06 штиль 0 8000 м дымка 8/3 600 м
[Cu Sc Ac und Cs]
+27.7 +23.8 79 +38 +38 очень
душно
1005.4 997.5
21 19.06 штиль 0 8000 м 8/3 600 м
[Cu Sc Ac und Cs]
+26.7 +24.2 86 +37 +37 очень
душно
1006.8 998.8
00 20.06 штиль 0 10 км 3/0
[Cs]
+27.5 +22.9 76 +37 +39 очень
душно
1008.1 1000.1 +26.2
03 20.06 ЮВ 4 10 км 3/0
[Cs]
+33.0 +22.0 52 +41 +51 опасность
перегрева
1008.3 1000.5
06 20.06 Ю 2 10 км 3/3 600 м
[Cu med, cong Cs]
+36.1 +22.3 45 +45 +60 опасность
перегрева
1006.0 998.3
09 20.06 штиль 0 10 км 4/3 600 м
[Cu med, cong Cs]
+36.0 +22.7 46 +45 +52 опасность
перегрева
1004.4 996.7
12 20.06 штиль 0 10 км 3/1 600 м
[Cu med, cong Cs]
+33.8 +23.3 54 +44 +44 опасность
перегрева
1004.4 996.7 +36.4
15 20.06 штиль 0 8000 м дымка 3/0
[Cs]
+28.0 +24.4 81 +39 +39 очень
душно
1005.2 997.3
18 20.06 штиль 0 7000 м дымка 3/0
[Cs]
+29.5 +23.7 71 +40 +40 очень
душно
1006.1 998.2
21 20.06 штиль 0 7000 м дымка 3/0
[Cs]
+28.6 +24.4 78 +40 +40 очень
душно
1005.8 997.9
00 21.06 ЮВ 3 10 км 4/3 600 м
[Cu med, cong Cs]
+28.7 +23.9 75 +40 +41 очень
душно
1007.4 999.5 +27.0
03 21.06 ЮЗ 4 10 км 3/1 600 м
[Cu med, cong Cs]
+32.8 +22.6 55 +42 +51 опасность
перегрева
1007.5 999.7
06 21.06 штиль 0 10 км 4/3 600 м
[Cu Sc Cs]
+35.2 +23.3 50 +46 +65 опасность
перегрева
1005.6 997.9
09 21.06 ЮЗ 7 10 км 3/1 600 м
[Cu med, cong Cs]
+37.3 +22.4 42 +46 +48 опасность
перегрева
1003.3 995.6
12 21.06 ЮЗ 4 10 км 4/1 600 м
[Cu med, cong Cs]
+34.4 +20.6 45 +41 +41 опасность
перегрева
1003.5 995.7 +37.5
15 21.06 штиль 0 10 км 3/0
[Cs]
+30.8 +22.6 62 +40 +40 очень
душно
1005.4 997.5
18 21.06 штиль 0 8000 м дымка 6/3 600 м
[Cu Sc Cs]
+28.8 +23.6 74 +39 +39 очень
душно
1005.2 997.3
21 21.06 штиль 0 8000 м дымка 4/3 600 м
[Cu med, cong Cs]
+27.8 +23.4 77 +38 +38 очень
душно
1005.1 997.2
00 22.06 штиль 0 10 км 3/0
[Cs]
+29.5 +25.2 78 +43 +45 опасность
перегрева
1006.6 998.7 +27.4
03 22.06 штиль 0 10 км 3/1 600 м
[Cu med, cong Cs]
+34.0 +24.3 57 +46 +64 опасность
перегрева
1005.3 997.5
06 22.06 СЗ 3 10 км 3/3 600 м
[Cu med, cong Cs]
+36.8 +23.5 47 +48 +60 опасность
перегрева
1003.3 995.6
09 22.06 штиль 0 10 км 4/3 600 м
[Cu med, cong Cs]
+38.2 +22.5 41 +47 +54 опасность
перегрева
1001.2 993.6
12 22.06 штиль 0 10 км 3/1 600 м
[Cu Sc Cs]
+35.5 +23.3 49 +46 +46 опасность
перегрева
1001.6 993.9 +38.5
15 22.06 штиль 0 8000 м мгла 3/0
[Cs]
+32.6 +24.0 61 +45 +45 опасность
перегрева
1003.6 995.9
18 22.06 штиль 0 7000 м дымка 3/0
[Cs]
+30.8 +24.5 69 +43 +43 опасность
перегрева
1003.1 995.3
21 22.06 штиль 0 7000 м дымка 3/0
[Cs]
+28.8 +24.8 79 +41 +41 опасность
перегрева
1002.7 994.9
00 23.06 штиль 0 10 км 6/3 600 м
[Cu Sc Cs]
+29.4 +25.7 81 +44 +45 опасность
перегрева
1004.7 996.8 +28.1
03 23.06 З 5 10 км 8/4 600 м
[Cu Sc Cs]
+33.6 +25.2 62 +48 +52 опасность
перегрева
1004.7 996.9
06 23.06 ЮВ 4 10 км 8/5 600 м
[Cu Sc Ac trans Cs]
+36.8 +25.0 51 +50 +55 опасность
перегрева
1003.0 995.3
09 23.06 штиль 0 10 км 6/4 600 м
[Cu Sc Cs]
+37.4 +25.1 50 +51 +57 опасность
перегрева
1000.9 993.3
12 23.06 С 7 6000 м гроза, ливневой дождь 10/8 300 м
[Cb cap Ac und Cs]
+25.2 +23.4 90 +34 +34 очень
душно
1005.6 997.6 +38.4 52
15 23.06 штиль 0 7000 м дымка {гроза} 10/6 600 м
[Cu Sc Ac und Cs]
+25.5 +24.3 93 +35 +35 очень
душно
1005.6 997.6 6
18 23.06 штиль 0 7000 м дымка {гроза} 8/4 600 м
[Cu Sc Ac und Cs]
+26.1 +24.8 93 +37 +37 очень
душно
1006.1 998.1 58
21 23.06 штиль 0 7000 м дымка 8/4 600 м
[Cu Sc Ac und Cs]
+26.0 +25.0 94 +37 +37 очень
душно
1005.1 997.1
00 24.06 штиль 0 9000 м дымка 8/3 600 м
[Cu Sc Ac und Cs]
+26.5 +25.1 92 +38 +39 очень
душно
1006.9 999.0 +24.5
03 24.06 штиль 0 10 км 8/3 600 м
[Cu Sc Ac und Cs]
+31.7 +25.8 71 +47 +56 опасность
перегрева
1007.7 999.9
06 24.06 штиль 0 10 км слаб. дождь 10/4 600 м
[Cu Sc Ac As Cs]
+29.0 +26.9 88 +45 +54 опасность
перегрева
1006.4 998.5 2
09 24.06 В 4 10 км {гроза} 9/4 600 м
[Cu Sc Ac As Cs]
+31.5 +25.9 72 +47 +49 опасность
перегрева
1004.4 996.5
12 24.06 штиль 0 9000 м дымка {гроза, дождь} 9/4 600 м
[Cu Sc Ac und Cs]
+28.0 +25.9 88 +42 +42 опасность
перегрева
1005.1 997.2 +33.7 2
15 24.06 штиль 0 8000 м дымка 9/4 600 м
[Cu Sc Ac und Cs]
+27.5 +25.4 88 +40 +40 очень
душно
1007.9 1000.0
18 24.06 штиль 0 8000 м дымка 8/4 600 м
[Cu Sc Ac und Cs]
+26.7 +25.0 90 +38 +38 очень
душно
1007.3 999.3
21 24.06 штиль 0 8000 м дымка 8/3 600 м
[Cu Sc Ac und Cs]
+26.6 +25.0 91 +38 +38 очень
душно
1006.9 998.9
00 25.06 штиль 0 9000 м дымка 10/4 600 м
[Cu Sc Ac und Cs]
+27.0 +25.6 92 +40 +40 очень
душно
1008.1 1000.1 +26.5
03 25.06 штиль 0 10 км 6/3 600 м
[Cu med, cong Ac und Cs]
+30.5 +25.6 75 +45 +57 опасность
перегрева
1008.8 1000.9
06 25.06 З 4 10 км 5/3 600 м
[Cu Sc Cs]
+33.5 +25.8 64 +49 +58 опасность
перегрева
1006.7 998.9

 

Местоположение метеостанции Вичан Бури (Таиланд): широта 15.63 долгота 101.11 высота над уровнем моря 69 м.

В архиве по умолчанию представлена погода в Вичан Бури за последнюю неделю. Архивные данные за месяц целиком и за предыдущие месяцы, начиная с января 2011 года, Вы можете получить, выбрав интересующий диапазон дат из раскрывающегося списка и нажав кнопку "Ввод!".


*Определитесь, кто Вы:
робот инопланетянин человек

Внимание! Время в таблицах - всемирное. Для получения местного времени необходимо прибавить поправку, которая равна 7 ч.

Смотрите также архив погоды в соседних городах и на ближайших метеорологических станциях:

Погода в Буа Чум (Таиланд) (41 км)
Погода в Лаем-Чабанге (Таиланд) (66 км)
Погода в Такфа Агромете (Таиланд) (72 км)
Погода в Пхетчабуне (Таиланд) (89 км)
Погода в Чайяпхуме (Таиланд) (100 км)
Погода в Накхон Саван (Таиланд) (103 км)
Погода в Лопбури (Таиланд) (107 км)
Погода в Чайнат Агромете (Таиланд) (113 км)
Погода в Пакчонг Агромете (Таиланд) (113 км)
Погода в Утай Тани (Таиланд) (118 км)

Пояснения к столбцам:

Ветер - указаны скорость ветра в м/с - средняя за 10 мин, порывы в срок и между сроками (в фигурных скобках) и направление, откуда дует ветер: С - северный, СВ - северо-восточный, В - восточный, ЮВ - юго-восточный, Ю - южный, ЮЗ - юго-западный, З - западный, СЗ - северо-западный.
Видимость - горизонтальная дальность видимости в метрах или километрах. При видимости от 1 до 10 км при отсутствии осадков обычно наблюдается дымка, при ухудшении видимости до 1 км и менее - туман. В сухую погоду видимость может ухудшаться дымом, пылью или мглою.
Явления - указаны атмосферные явления, наблюдавшиеся в срок или в последний час перед сроком; фигурными скобками обозначены явления, наблюдавшиеся между сроками (за 1-3 часа до срока); квадратными скобками обозначены град или гололедные отложения с указанием их диаметра в мм.
Облачность - указаны через наклонную черту общая и нижняя облачность в баллах и высота нижней границы облаков в метрах; квадратными скобками обозначены формы облаков: Ci - перистые, Cs - перисто-слоистые, Cc - перисто-кучевые, Ac - высококучевые, As - высокослоистые, Sc - слоисто-кучевые, Ns - слоисто-дождевые, Cu - кучевые, Cb - кучево-дождевые. Подробнее классификацию облаков см. в Атласе облаков (PDF).
T - Температура воздуха - температура, измеренная на высоте 2 м над землей.
Td - Температура точки росы - температура, при понижении до которой содержащийся в воздухе водяной пар достигнет насыщения.
f - Относительная влажность воздуха - влажноcть воздуха, измеренная на высоте 2 м над землей.
Te - Эффективная температура - температура, которую ощущает одетый по сезону человек в тени. Характеристика душности погоды. При расчете учитывается влияние влажности воздуха и скорости ветра на теплоощущения человека.
Tes - Эффективная температура на солнце - температура, которую ощущает человек, с поправкой на солнечный нагрев. Характеристика знойности погоды. Зависит от высоты солнца над горизонтом, облачности и скорости ветра. Ночью, в пасмурную погоду, а также при ветре 12 м/с и более поправка равна нулю.
P - Атмосферное давление - приведенное к уровню моря атмосферное давление.
Po - Атмосферное давление - измеренное на уровне метеостанции атмосферное давление.
Tmin - Минимальная температура - минимум температуры воздуха на высоте 2 м над землей.
Tmax - Максимальная температура - максимум температуры воздуха на высоте 2 м над землей.
R - Количество осадков - Количество выпавших осадков за период времени, мм. При наведении курсора мыши на число - период времени, за который выпало указанное количество осадков.
R24 - Количество осадков - Количество выпавших осадков за 24 часа, мм.
S - Снежный покров - Высота снежного покрова, см. При наведении курсора мыши на число - состояние снежного покрова и степень покрытия местности в баллах.